SES-12

Last updated on Wed Sep 17 2025 00:02:50 GMT+0000 (Coordinated Universal Time)

1 43488U 18049A 25259.64773483 -.00000289 00000+0 00000+0 0 9992 2 43488 0.0202 59.3314 0002080 184.2012 80.4859 1.00270416 26672
UTC large
Height (km)
Speed (km/s)
/
Latitude / Longitude
Inclination (degrees)
Orbital Period (minutes)
Azimuth
Elevation
Range (km)
Doppler Factor

Next 0 passes for location: London (51.5072 / 0.1276)

Sorry there are no passes over London.